Location: Newark
(45.9456°N, 15.4064°E)
Time: 20:52:11
(UTC+00:00)

Courier 1B Rocket - Pass Details

Date: 20 January 2020
Orbit: 920 x 1202 km, 28.2° (Epoch: 22 February)

Event Time Altitude Azimuth Distance (km) Brightness Sun altitude
Rises 14:04:22 0° 233° (SW) 3,667 9.8 12.9°
Reaches altitude 10° 14:08:17 10° 211° (SSW) 2,672 9.6 12.5°
Maximum altitude 14:11:44 15° 178° (S) 2,291 7.8 12.1°
Drops below altitude 10° 14:15:07 10° 145° (SE) 2,616 7.5 11.7°
Sets 14:18:53 0° 123° (ESE) 3,546 7.8 11.2°
